Location: Suzhou
(31.3110°N, 120.6180°E)
Time: 18:08:48
(UTC+08:00)

Hubble Space Telescope - Pass Details

Date: 29 February 2024
Orbit: 513 x 517 km, 28.5° (Epoch: 22 April)

Event Time Altitude Azimuth Distance (km) Brightness Sun altitude
Rises 20:12:09 0° 269° (W) 2,635 5.4 -30.0°
Reaches altitude 10° 20:14:27 10° 263° (W) 1,747 4.2 -30.5°
Enters shadow 20:15:58 21° 253° (WSW) 1,208 3.1 -30.8°
